Weather History for KGVL - July, 2014

Change the Weather History Date:

Tuesday, July 1, 2014

  Actual Average Record
Temperature  
Mean Temperature 81 °F 78 °F  
Max Temperature 90 °F 87 °F - ()
Min Temperature 71 °F 69 °F - ()
Cooling Degree Days 16 13  
Month to date cooling degree days 16 13  
Year to date cooling degree days 602 509  
Since 1 June cooling degree days 373 334  
Growing Degree Days 30 (Base 50)    
Moisture  
Dew Point 70 °F    
Average Humidity 74    
Maximum Humidity 100    
Minimum Humidity 47    
Precipitation  
Precipitation 0.00 in 0.17 in - ()
Month to date precipitation 0.00 0.17  
Year to date precipitation 20.93 27.48  
Sea Level Pressure  
Sea Level Pressure 29.99 in    
Wind  
Wind Speed 5 mph (WNW)    
Max Wind Speed 13 mph    
Max Gust Speed 16 mph    
Visibility 8 miles    
Events Fog    
T = Trace of Precipitation, MM = Missing Value Source: NWS Daily Summary

Daily Weather History Graph

Daily Weather History Graph

Search for Another Location

Airport or City:

Trip Planner

Search our weather history database for the weather conditions in past years. The results will help you decide how hot, cold, wet, or windy it might be!

Date:

Astronomy

Jul. 01, 2014 Rise Set
Actual Time 6:27 AM EDT 8:51 PM EDT
Civil Twilight 5:57 AM EDT 9:20 PM EDT
Nautical Twilight 5:21 AM EDT 9:56 PM EDT
Astronomical Twilight 4:42 AM EDT 10:35 PM EDT
Moon 10:22 AM EDT (7/1) 11:26 PM EDT (7/1)
Length of Visible Light 15h 22m
Length of Day
14h 24m
Waxing Crescent, 16% of the Moon is Illuminated
Jul 1
Waxing Crescent
Jul 5
First Quarter
Jul 12
Full
Jul 18
Last Quarter
Jul 26
New

Hourly Weather History & Observations

Time (EDT) Temp. Heat Index Dew Point Humidity Pressure Visibility Wind Dir Wind Speed Gust Speed Precip Events Conditions
1:53 AM 72.0 °F - 70.0 °F 93% 29.99 in 10.0 mi Calm Calm - N/A   Clear
2:53 AM 72.0 °F - 70.0 °F 93% 29.97 in 10.0 mi Calm Calm - N/A   Clear
3:53 AM 72.0 °F - 70.0 °F 93% 29.97 in 8.0 mi Calm Calm - N/A   Partly Cloudy
4:53 AM 73.0 °F - 71.1 °F 93% 29.97 in 8.0 mi WNW 4.6 mph - N/A   Mostly Cloudy
5:02 AM 73.0 °F - 71.1 °F 93% 30.02 in 8.0 mi WNW 3.5 mph - N/A   Mostly Cloudy
5:13 AM 73.0 °F - 71.1 °F 93% 30.02 in 7.0 mi WNW 4.6 mph - N/A   Mostly Cloudy
5:24 AM 73.0 °F - 71.1 °F 93% 30.02 in 5.0 mi NW 4.6 mph - N/A   Overcast
5:40 AM 73.0 °F - 72.0 °F 96% 30.02 in 2.0 mi NW 6.9 mph - N/A   Overcast
5:42 AM 73.0 °F - 72.0 °F 96% 30.02 in 1.5 mi NW 6.9 mph - N/A   Overcast
5:47 AM 71.6 °F - 71.6 °F 100% 30.02 in 0.8 mi WNW 5.8 mph - N/A   Overcast
5:53 AM 72.0 °F - 71.1 °F 97% 29.97 in 0.5 mi WNW 4.6 mph - N/A Fog Fog
6:12 AM 72.0 °F - 71.1 °F 97% 30.03 in 1.2 mi WNW 4.6 mph - N/A   Overcast
6:15 AM 72.0 °F - 71.1 °F 97% 30.03 in 2.5 mi WNW 4.6 mph - N/A   Overcast
6:22 AM 72.0 °F - 71.1 °F 97% 30.03 in 7.0 mi West 4.6 mph - N/A   Overcast
6:53 AM 72.0 °F - 71.1 °F 97% 30.00 in 8.0 mi West 5.8 mph - N/A   Overcast
7:53 AM 73.9 °F - 71.1 °F 91% 30.03 in 10.0 mi WNW 4.6 mph - N/A   Partly Cloudy
8:53 AM 78.1 °F - 70.0 °F 76% 30.02 in 10.0 mi WNW 5.8 mph - N/A   Clear
9:53 AM 81.0 °F 84.9 °F 71.1 °F 72% 30.02 in 10.0 mi WNW 6.9 mph - N/A   Clear
10:53 AM 82.0 °F 86.3 °F 71.1 °F 69% 30.00 in 10.0 mi WSW 4.6 mph - N/A   Scattered Clouds
11:01 AM 82.0 °F 85.9 °F 70.0 °F 67% 30.05 in 10.0 mi West 5.8 mph - N/A   Mostly Cloudy
11:09 AM 82.9 °F 87.0 °F 70.0 °F 65% 30.05 in 10.0 mi Variable 3.5 mph - N/A   Scattered Clouds
11:19 AM 82.0 °F 85.9 °F 70.0 °F 67% 30.05 in 10.0 mi WNW 5.8 mph - N/A   Mostly Cloudy
11:30 AM 82.9 °F 86.5 °F 69.1 °F 63% 30.06 in 10.0 mi WNW 5.8 mph - N/A   Scattered Clouds
11:53 AM 84.0 °F 86.5 °F 66.9 °F 56% 30.01 in 10.0 mi WNW 6.9 mph - N/A   Partly Cloudy
12:53 PM 86.0 °F 89.4 °F 68.0 °F 55% 29.99 in 10.0 mi Calm Calm - N/A   Clear
1:53 PM 86.0 °F 88.8 °F 66.9 °F 53% 29.98 in 10.0 mi Variable 3.5 mph - N/A   Scattered Clouds
2:53 PM 88.0 °F 90.7 °F 66.9 °F 49% 29.94 in 10.0 mi Variable 4.6 mph - N/A   Clear
3:53 PM 90.0 °F 92.8 °F 66.9 °F 46% 29.94 in 10.0 mi West 9.2 mph - N/A   Clear
4:53 PM 89.1 °F 92.9 °F 68.0 °F 50% 29.95 in 10.0 mi WSW 10.4 mph - N/A   Partly Cloudy
5:53 PM 89.1 °F 91.3 °F 66.0 °F 46% 29.94 in 10.0 mi West 9.2 mph - N/A   Clear
6:53 PM 88.0 °F 90.3 °F 66.0 °F 48% 29.93 in 10.0 mi West 9.2 mph - N/A   Clear
7:53 PM 86.0 °F 90.1 °F 69.1 °F 57% 29.92 in 9.0 mi WSW 6.9 mph - N/A   Clear
8:53 PM 82.9 °F 87.0 °F 70.0 °F 65% 29.90 in 9.0 mi West 4.6 mph - N/A   Clear
9:53 PM 80.1 °F 83.2 °F 70.0 °F 71% 29.93 in 10.0 mi West 4.6 mph - N/A   Clear
10:53 PM 80.1 °F 83.2 °F 70.0 °F 71% 29.97 in 10.0 mi West 5.8 mph - N/A   Clear
11:53 PM 79.0 °F - 71.1 °F 77% 29.98 in 10.0 mi WNW 6.9 mph - N/A   Clear